Regional Weather Roundup
Issued by NWS

Home | Current Version | Previous Version | Graphics & Text | Print | Product List | Glossary Off
Versions: 1 2 3 4 5 6 7 8 9 10 11 12 13 14 15 16 17 18 19 20 21 22 23 24 25 26 27 28 29 30 31 32 33 34 35 36 37 38 39 40 41 42 43 44 45 46 47 48 49 50

000
ASUS43 KMKX 280300
RWRWI

WISCONSIN REGIONAL WEATHER ROUNDUP
NATIONAL WEATHER SERVICE MILWAUKEE/SULLIVAN WI
1000 PM CDT THU AUG 27 2015

NOTE: "FAIR" INDICATES FEW OR NO CLOUDS BELOW 12,000 FEET WITH NO
SIGNIFICANT WEATHER AND/OR OBSTRUCTIONS TO VISIBILITY.

WIZ001-002-006>008-014>016-023>028-280400-
NORTHWEST WISCONSIN

CITY           SKY/WX    TMP DP  RH WIND       PRES   REMARKS
SUPERIOR ARPT  CLOUDY    57  50  78 CALM      30.01S
ASHLAND        CLOUDY    61  60  97 CALM      30.02S
HAYWARD        MOCLDY    65  58  78 S5        30.03F
SIREN          MOCLDY    65  59  80 S5        30.01F
CUMBERLAND     CLOUDY    63  57  82 SE6       30.03F
RICE LAKE      CLOUDY    64  58  80 SE7       30.05F
CHETEK         CLOUDY   N/A N/A N/A SE7       30.04F
LADYSMITH      MOCLDY    65  59  80 S3        30.07F
EAU CLAIRE     NOT AVBL
MENOMONIE      MOCLDY    63  60  90 E6        30.04S
NEW RICHMOND   MOCLDY    64  58  81 S5        30.02S
OSCEOLA        MOCLDY    65  60  83 S3        30.04S
$$

WIZ003>005-009-010-017-018-280400-
NORTH CENTRAL WISCONSIN

CITY           SKY/WX    TMP DP  RH WIND       PRES   REMARKS
MANITOWISH WTR MOCLDY    57  57 100 S3        30.07S
ARBOR VITAE    MOCLDY    62  57  84 CALM      30.08S
WOODRUFF       MOCLDY    62  57  84 CALM      30.08S
RHINELANDER    MOCLDY    60  56  86 CALM      30.09F
EAGLE RIVER    MOCLDY    62  53  73 CALM      30.08F
LAND O LAKES   PTCLDY    62  55  78 CALM      30.09S
PHILLIPS       MOCLDY    61  58  87 S3        30.06F
TOMAHAWK       MOCLDY    58  56  94 CALM      30.09S
MEDFORD        CLOUDY    60  58  94 S5        30.09R
MERRILL        PTCLDY    63  58  83 CALM      30.09S
$$

WIZ029-030-035-036-043>047-280400-
CENTRAL WISCONSIN

CITY           SKY/WX    TMP DP  RH WIND       PRES   REMARKS
WAUSAU         PTCLDY    65  58  78 CALM      30.07S
MOSINEE        CLEAR     61  59  94 S3        30.10S
MARSHFIELD     MOCLDY    62  56  80 S3        30.08F
STEVENS POINT  CLEAR     59  56  88 CALM      30.10S
WAUPACA        PTCLDY    64  60  86 CALM      30.10S
WAUTOMA        NOT AVBL
WISC RAPIDS    PTCLDY    62  57  83 CALM      30.11R
CAMP DOUGLAS   NOT AVBL
$$

WIZ011>013-019>022-031-037>040-048>050-280400-
NORTHEAST WISCONSIN

CITY           SKY/WX    TMP DP  RH WIND       PRES   REMARKS
ANTIGO         MOCLDY    60  55  86 S5        30.10S
SHAWANO        MOCLDY    65  58  77 S5        30.09S
OCONTO         PTCLDY    61  61 100 S3        30.09S
STURGEON BAY   CLEAR     57  52  82 S8        30.13S
GREEN BAY      MOCLDY    62  57  83 S7        30.10S
MANITOWOC      NOT AVBL
APPLETON       MOCLDY    64  54  68 SE5       30.09S
CLINTONVILLE   MOCLDY    61  55  82 S3        30.09S
OSHKOSH        PTCLDY    59  55  87 S6        30.10S
$$

WIZ032>034-041-042-053>061-280400-
SOUTHWEST WISCONSIN

CITY           SKY/WX    TMP DP  RH WIND       PRES   REMARKS
LA CROSSE      MOCLDY    67  60  78 S6        30.05F
SPARTA         MOCLDY    63  58  83 CALM      30.09S
VIROQUA        MOCLDY    63  60  90 S5        30.10S
BOSCOBEL       PTCLDY    62  59  90 CALM      30.10R
PRAIRIE DU CHI MOCLDY    66  58  73 CALM      30.08F
PLATTEVILLE    MOCLDY    63  60  89 CALM      30.11R
$$

WIZ056-057-062-063-064-067-068-280400-
SOUTH CENTRAL WISCONSIN

CITY           SKY/WX    TMP DP  RH WIND       PRES   REMARKS
REEDSBURG      PTCLDY    64  59  83 CALM      30.09S
BARABOO/DELLS  PTCLDY    63  56  79 SE5       30.10S
LONE ROCK      NOT AVBL
MINERAL POINT  CLEAR     63  59  88 CALM      30.11S
MADISON        MOCLDY    66  57  72 S7        30.11S
MIDDLETON      PTCLDY    66  57  74 S6        30.11F
WATERTOWN      MOCLDY    62  59  91 SE3       30.12S
MONROE         CLEAR     63  55  77 SE7       30.12F
JANESVILLE     CLEAR     61  55  82 SE3       30.13R
$$

WIZ051-052-058>065-066-070>072-280400-
SOUTHEAST WISCONSIN

CITY           SKY/WX    TMP DP  RH WIND       PRES   REMARKS
MILWAUKEE      MOCLDY    62  55  77 SW5       30.14S
WAUKESHA       MOCLDY    59  52  77 CALM      30.15S
MILWAUKEE/TIMM MOCLDY    61  52  72 S5        30.15R
RACINE         MOCLDY    61  54  77 SW3       30.16R
BURLINGTON     MOCLDY    55  52  89 CALM      30.14S
KENOSHA        MOCLDY    56  53  90 CALM      30.15R
FOND DU LAC    PTCLDY    60  57  89 S6        30.12S
SHEBOYGAN      PTCLDY    56  53  90 CALM      30.13S
WEST BEND      FAIR      59  52  77 CALM      30.14R
JUNEAU         PTCLDY    64  56  77 S8        30.13S
$$

LSZ147-162-280400-
LAKE SUPERIOR

STATION/POSITION TIME  TEMP    WIND        PRES    WAVE
                       AIR SEA DIR/SP/G            HT/PER
                 (UTC) (F)     (DEG/KT/KT) (MB)    (FT/S)
W MID LAKE BUOY  0150   57 56  130/  8/  8 1016.2F   0
DEVILS ISLAND    0200   61     140/  5/  6 1016.3R
PORT WING        0240   57      50/  3/  5 1016.3S
SAXON HARBOR     0200   62     210/  2/  3 1015.9S
$$

LMZ867-665-643>646-280400-
LAKE MICHIGAN

STATION/POSITION TIME  TEMP    WIND        PRES    WAVE
                       AIR SEA DIR/SP/G            HT/PER
                 (UTC) (F)     (DEG/KT/KT) (MB)    (FT/S)
CHAMBERS ISLAND  0200   63     150/  4/  9 1019.3S
S GREEN BAY BUOY 0200   65     170/ 12/ 14 1020.4R
N MID LAKE BUOY  0150   63 64  210/ 17/ 19 1019.3R   2/ 4
NORTHPORT PIER   0200   62     170/  5/ 14 1019.3S
SISTER BAY       0219   61     160/ 12/ 15   N/A
ALGOMA LAKESHORE 0114          200/ 10/ 11   N/A
KEWAUNEE LAKESHO 0200   51     170/ 10/ 10 1018.9R
SHEBOYGAN LAKESH 0200   60     190/ 14/ 15 1020.6F
PORT WASHINGTON  0200   54     170/  2/  3 1021.0S
ATWATER BUOY     0200   53 47  170/  6/  6 1021.8R
MILWAUKEE LAKESH 0200   61     220/  3/  4   N/A
S MID LAKE BUOY  0150   66 69  140/  6/  6 1020.8R   0
KENOSHA   LAKESH 0200   62     180/  7/  8 1020.3S
$$

TC  - TEMPERATURE IN CELSIUS
VSB - VISIBILITY IN STATUTE MILES
WCI - WIND CHILL INDEX
HX  - HEAT INDEX



USA.gov is the U.S. government's official web portal to all federal, state and local government web resources and services.